GW6830 Weather Reports


time (UTC)temp
C
wind
direction
speed
KPH
gust
KPH
rain 1hr
cm
rain 24hr
cm
rain mn
cm
humidity
%
barometer
mb
20260510083049 16 337 3.2 8.0 0.00 0.00 0.00 72 1013.7
20260510082550 16 353 1.6 4.8 0.00 0.00 0.00 72 1013.6
20260510082049 16 348 1.6 8.0 0.00 0.00 0.00 71 1013.6
20260510081549 16 329 4.8 8.0 0.00 0.00 0.00 71 1013.5
20260510081049 16 334 1.6 6.4 0.00 0.00 0.00 73 1013.3
20260510080549 15 327 3.2 4.8 0.00 0.00 0.00 75 1013.4
20260510080050 15 19 1.6 4.8 0.00 0.00 0.00 75 1013.4
20260510075549 15 11 3.2 4.8 0.00 0.00 0.00 77 1013.2
20260510075049 15 18 0.0 4.8 0.00 0.00 0.00 77 1013.3
20260510074549 15 2 3.2 4.8 0.00 0.00 0.00 76 1013.4
20260510074049 15 11 1.6 3.2 0.00 0.00 0.00 77 1013.4
20260510073549 16 5 1.6 4.8 0.00 0.00 0.00 77 1013.5
20260510073050 16 9 3.2 8.0 0.00 0.00 0.00 75 1013.6
20260510072549 16 358 3.2 6.4 0.00 0.00 0.00 73 1013.5
20260510072050 16 6 3.2 6.4 0.00 0.00 0.00 72 1013.5
20260510071549 16 349 3.2 4.8 0.00 0.00 0.00 73 1013.5
20260510071049 16 344 1.6 4.8 0.00 0.00 0.00 74 1013.5
20260510070549 15 2 1.6 4.8 0.00 0.00 0.00 73 1013.5
20260510070049 15 339 3.2 4.8 0.00 0.00 0.00 74 1013.4
20260510065549 15 2 3.2 4.8 0.00 0.00 0.00 76 1013.5
20260510065049 15 5 3.2 3.2 0.00 0.00 0.00 77 1013.6
20260510064550 15 1 3.2 3.2 0.00 0.00 0.00 77 1013.7
20260510064049 15 16 3.2 4.8 0.00 0.00 0.00 77 1013.7
20260510063549 16 348 1.6 4.8 0.00 0.00 0.00 77 1013.7
20260510063049 16 21 3.2 4.8 0.00 0.00 0.00 78 1013.8
20260510062549 16 13 3.2 6.4 0.00 0.00 0.00 74 1013.8
20260510062049 15 347 3.2 6.4 0.00 0.00 0.00 74 1013.8
20260510061549 15 12 3.2 4.8 0.00 0.00 0.00 78 1013.8
20260510061050 15 17 3.2 4.8 0.00 0.00 0.00 78 1013.8
20260510060549 15 348 3.2 4.8 0.00 0.00 0.00 79 1013.7
20260510060049 16 26 3.2 3.2 0.00 0.00 0.00 79 1013.8
20260510055549 16 16 3.2 3.2 0.00 0.00 0.00 79 1013.8
20260510055049 16 10 3.2 3.2 0.00 0.00 0.00 77 1013.9
20260510054549 16 17 3.2 4.8 0.00 0.00 0.00 78 1013.8
20260510054049 16 8 3.2 4.8 0.00 0.00 0.00 74 1013.8
20260510053549 16 349 3.2 6.4 0.00 0.00 0.00 74 1013.7
20260510053049 16 347 3.2 4.8 0.00 0.00 0.00 74 1013.7
20260510052549 16 336 3.2 4.8 0.00 0.00 0.00 73 1013.8
20260510052049 16 350 3.2 3.2 0.00 0.00 0.00 74 1013.7
20260510051549 16 335 1.6 4.8 0.00 0.00 0.00 74 1013.7
20260510051049 16 329 3.2 4.8 0.00 0.00 0.00 73 1013.7
20260510050549 16 11 3.2 4.8 0.00 0.00 0.00 73 1013.7
20260510050050 16 340 3.2 4.8 0.00 0.00 0.00 74 1013.7
20260510045549 16 339 3.2 4.8 0.00 0.00 0.00 75 1013.7
20260510045049 16 352 1.6 3.2 0.00 0.00 0.00 75 1013.6
20260510044549 17 17 1.6 3.2 0.00 0.00 0.00 75 1013.5
20260510044049 17 18 3.2 6.4 0.00 0.00 0.00 69 1013.4
20260510043550 17 2 3.2 6.4 0.00 0.00 0.00 67 1013.5
20260510043049 16 343 1.6 6.4 0.00 0.00 0.00 71 1013.5
20260510042549 16 353 3.2 4.8 0.00 0.00 0.00 76 1013.4
20260510042049 16 334 1.6 3.2 0.00 0.00 0.00 84 1013.5
20260510041549 17 343 1.6 3.2 0.00 0.00 0.00 82 1013.5
20260510041049 17 356 3.2 3.2 0.00 0.00 0.00 81 1013.5
20260510040550 17 10 3.2 3.2 0.00 0.00 0.00 79 1013.4
20260510040050 17 24 1.6 3.2 0.00 0.00 0.00 76 1013.3
20260510035550 17 14 0.0 3.2 0.00 0.00 0.00 79 1013.2
20260510035049 17 0 0.0 1.6 0.00 0.00 0.00 79 1013.1
20260510034549 17 294 0.0 3.2 0.00 0.00 0.00 77 1013.0
20260510034049 18 34 0.0 3.2 0.00 0.00 0.00 76 1012.9
20260510033549 18 356 1.6 3.2 0.00 0.00 0.00 72 1012.9
20260510033051 19 13 0.0 3.2 0.00 0.00 0.00 64 1012.8
20260510032550 19 0 0.0 3.2 0.00 0.00 0.00 56 1012.7
20260510032050 19 321 0.0 3.2 0.00 0.00 0.00 56 1012.7
20260510031549 19 1 1.6 3.2 0.00 0.00 0.00 56 1012.6
20260510031049 20 331 1.6 3.2 0.00 0.00 0.00 56 1012.5
20260510030549 20 9 1.6 4.8 0.00 0.00 0.00 56 1012.5
20260510030049 20 357 1.6 3.2 0.00 0.00 0.00 56 1012.6
20260510025549 20 19 3.2 3.2 0.00 0.00 0.00 53 1012.5
20260510025049 21 33 1.6 4.8 0.00 0.00 0.00 51 1012.3
20260510024549 21 5 3.2 4.8 0.00 0.00 0.00 47 1012.2
20260510024049 21 342 1.6 4.8 0.00 0.00 0.00 47 1012.1
20260510023549 21 226 1.6 3.2 0.00 0.00 0.00 47 1012.0
20260510023050 21 261 1.6 3.2 0.00 0.00 0.00 48 1011.9
20260510022549 21 311 0.0 4.8 0.00 0.00 0.00 51 1011.8
20260510022049 20 319 0.0 4.8 0.00 0.00 0.00 53 1011.6
20260510021550 20 331 0.0 4.8 0.00 0.00 0.00 57 1011.6
20260510021050 20 331 0.0 6.4 0.00 0.00 0.00 59 1011.5
20260510020549 21 317 3.2 6.4 0.00 0.00 0.00 60 1011.3
20260510020049 21 2 1.6 3.2 0.00 0.00 0.00 57 1011.2
20260510015549 22 298 0.0 3.2 0.00 0.00 0.00 58 1011.1
20260510015049 22 37 0.0 4.8 0.00 0.00 0.00 53 1011.1
20260510014550 23 346 1.6 3.2 0.00 0.00 0.00 44 1011.0
20260510014049 23 268 0.0 3.2 0.00 0.00 0.00 45 1010.8
20260510013553 23 259 1.6 4.8 0.00 0.00 0.00 45 1010.7
20260510013050 23 267 1.6 4.8 0.00 0.00 0.00 45 1010.7
20260510012549 23 262 0.0 3.2 0.00 0.00 0.00 46 1010.7
20260510012049 23 272 0.0 3.2 0.00 0.00 0.00 47 1010.6
20260510011549 23 277 0.0 4.8 0.00 0.00 0.00 47 1010.6
20260510011050 23 274 3.2 6.4 0.00 0.00 0.00 47 1010.5
20260510010549 23 250 3.2 4.8 0.00 0.00 0.00 47 1010.5
20260510010049 23 265 0.0 4.8 0.00 0.00 0.00 48 1010.4
20260510005549 23 294 1.6 4.8 0.00 0.00 0.00 47 1010.4
20260510005049 24 266 0.0 6.4 0.00 0.00 0.00 48 1010.4
20260510004549 24 292 0.0 4.8 0.00 0.00 0.00 48 1010.4
20260510004050 25 296 3.2 6.4 0.00 0.00 0.00 47 1010.4
20260510003549 25 257 3.2 6.4 0.00 0.00 0.00 47 1010.3
20260510003050 26 268 0.0 3.2 0.00 0.00 0.00 47 1010.3
20260510002549 26 285 0.0 3.2 0.00 0.00 0.00 45 1010.3
20260510002049 26 319 0.0 3.2 0.00 0.00 0.00 47 1010.3
20260510001550 26 295 0.0 6.4 0.00 0.00 0.00 46 1010.3
20260510001049 26 231 3.2 6.4 0.00 0.00 0.00 44 1010.3
20260510000549 27 264 1.6 6.4 0.00 0.00 0.00 44 1010.2
20260510000050 27 248 0.0 3.2 0.00 0.00 0.00 44 1010.3
20260509235549 27 271 1.6 3.2 0.00 0.00 0.00 44 1010.4
20260509235049 27 275 0.0 4.8 0.00 0.00 0.00 43 1010.3
20260509234549 27 300 1.6 4.8 0.00 0.00 0.00 43 1010.2
20260509234050 27 318 1.6 4.8 0.00 0.00 0.00 43 1010.2
20260509233549 27 355 1.6 4.8 0.00 0.00 0.00 43 1010.2
20260509233049 27 171 1.6 6.4 0.00 0.00 0.00 41 1010.2
20260509232549 27 239 1.6 4.8 0.00 0.00 0.00 41 1010.3
20260509232049 28 285 1.6 6.4 0.00 0.00 0.00 41 1010.3
20260509231549 28 323 4.8 6.4 0.00 0.00 0.00 38 1010.3
20260509231049 29 326 1.6 4.8 0.00 0.00 0.00 35 1010.3
20260509230549 29 332 3.2 4.8 0.00 0.00 0.00 33 1010.3
20260509230051 29 358 1.6 4.8 0.00 0.00 0.00 36 1010.2
20260509225549 29 269 1.6 3.2 0.00 0.00 0.00 35 1010.2
20260509225050 29 119 0.0 6.4 0.00 0.00 0.00 33 1010.2
20260509224549 29 348 3.2 6.4 0.00 0.00 0.00 34 1010.2
20260509224049 29 331 1.6 4.8 0.00 0.00 0.00 35 1010.2
20260509223549 30 351 3.2 4.8 0.00 0.00 0.00 35 1010.1
20260509223049 29 26 1.6 6.4 0.00 0.00 0.00 36 1010.1
20260509222550 29 39 1.6 6.4 0.00 0.00 0.00 35 1010.1
20260509222050 29 349 3.2 6.4 0.00 0.00 0.00 36 1010.1
20260509221549 29 17 0.0 6.4 0.00 0.00 0.00 37 1010.1
20260509221049 29 235 1.6 3.2 0.00 0.00 0.00 33 1010.1
20260509220549 28 348 1.6 4.8 0.00 0.00 0.00 35 1010.1
20260509220049 28 3 1.6 8.0 0.00 0.00 0.00 35 1010.2
20260509215549 28 8 4.8 8.0 0.00 0.00 0.00 34 1010.2
20260509215049 28 326 0.0 4.8 0.00 0.00 0.00 35 1010.2
20260509214549 28 130 3.2 4.8 0.00 0.00 0.00 35 1010.3
20260509214052 28 46 1.6 4.8 0.00 0.00 0.00 35 1010.3
20260509213549 28 4 3.2 9.7 0.00 0.00 0.00 37 1010.3
20260509213050 28 342 4.8 9.7 0.00 0.00 0.00 35 1010.3
20260509212550 28 50 3.2 8.0 0.00 0.00 0.00 36 1010.4
20260509212049 28 147 3.2 6.4 0.00 0.00 0.00 34 1010.4
20260509211549 28 315 3.2 9.7 0.00 0.00 0.00 38 1010.4
20260509211049 28 305 4.8 8.0 0.00 0.00 0.00 35 1010.4
20260509210549 29 39 1.6 9.7 0.00 0.00 0.00 38 1010.5
20260509210049 30 354 4.8 8.0 0.00 0.00 0.00 34 1010.4
20260509205549 30 340 3.2 9.7 0.00 0.00 0.00 37 1010.5
20260509205049 30 8 6.4 9.7 0.00 0.00 0.00 35 1010.4
20260509204549 29 11 4.8 6.4 0.00 0.00 0.00 35 1010.4
20260509204049 28 299 1.6 9.7 0.00 0.00 0.00 37 1010.5
20260509203549 28 28 3.2 9.7 0.00 0.00 0.00 37 1010.5
20260509203049 28 347 3.2 14.5 0.00 0.00 0.00 37 1010.5
20260509202549 28 0 4.8 8.0 0.00 0.00 0.00 36 1010.6
20260509202049 28 310 4.8 11.3 0.00 0.00 0.00 38 1010.7
20260509201550 28 243 3.2 8.0 0.00 0.00 0.00 38 1010.7
20260509201049 28 134 1.6 6.4 0.00 0.00 0.00 37 1010.7
20260509200549 29 323 3.2 8.0 0.00 0.00 0.00 36 1010.8
20260509200049 28 337 1.6 9.7 0.00 0.00 0.00 39 1010.8
20260509195549 28 28 4.8 9.7 0.00 0.00 0.00 38 1011.0
20260509195049 28 10 1.6 9.7 0.00 0.00 0.00 38 1011.0
20260509194549 27 7 3.2 8.0 0.00 0.00 0.00 37 1011.0
20260509194050 27 287 3.2 9.7 0.00 0.00 0.00 39 1011.0
20260509193549 27 255 3.2 11.3 0.00 0.00 0.00 38 1011.1
20260509193049 28 321 6.4 11.3 0.00 0.00 0.00 37 1011.2
20260509192549 28 345 6.4 12.9 0.00 0.00 0.00 37 1011.2
20260509192049 28 327 1.6 8.0 0.00 0.00 0.00 39 1011.2
20260509191550 28 69 1.6 11.3 0.00 0.00 0.00 37 1011.3
20260509191050 28 21 4.8 8.0 0.00 0.00 0.00 41 1011.2
20260509190549 27 336 3.2 6.4 0.00 0.00 0.00 40 1011.2
20260509190049 27 33 1.6 6.4 0.00 0.00 0.00 38 1011.2
20260509185127 28 31 3.2 9.7 0.00 0.00 0.00 38 1011.3
20260509184549 28 70 0.0 9.7 0.00 0.00 0.00 39 1011.3
20260509184050 28 350 3.2 12.9 0.00 0.00 0.00 37 1011.3
20260509183549 28 352 9.7 12.9 0.00 0.00 0.00 35 1011.3
20260509183050 28 322 4.8 9.7 0.00 0.00 0.00 33 1011.3
20260509182550 28 337 3.2 6.4 0.00 0.00 0.00 35 1011.3
20260509182049 28 134 3.2 9.7 0.00 0.00 0.00 33 1011.3
20260509181550 28 51 3.2 8.0 0.00 0.00 0.00 35 1011.3
20260509181050 28 14 3.2 9.7 0.00 0.00 0.00 32 1011.3
20260509180550 28 101 0.0 4.8 0.00 0.00 0.00 32 1011.3
20260509180051 28 309 1.6 12.9 0.00 0.00 0.00 33 1011.3
20260509175550 28 314 1.6 6.4 0.00 0.00 0.00 35 1011.3
20260509175050 28 353 1.6 6.4 0.00 0.00 0.00 37 1011.5
20260509174549 27 15 0.0 9.7 0.00 0.00 0.00 41 1011.5
20260509174049 27 301 4.8 9.7 0.00 0.00 0.00 40 1011.6
20260509173550 27 343 3.2 11.3 0.00 0.00 0.00 43 1011.6
20260509173049 27 351 3.2 6.4 0.00 0.00 0.00 45 1011.7
20260509172549 27 65 0.0 8.0 0.00 0.00 0.00 44 1011.7
20260509172050 26 40 0.0 8.0 0.00 0.00 0.00 44 1011.8
20260509171550 26 305 3.2 9.7 0.00 0.00 0.00 46 1011.8
20260509171049 26 43 1.6 9.7 0.00 0.00 0.00 47 1011.8
20260509170549 26 327 1.6 9.7 0.00 0.00 0.00 48 1011.8
20260509170049 26 335 3.2 11.3 0.00 0.00 0.00 46 1011.8
20260509165550 25 5 3.2 9.7 0.00 0.00 0.00 48 1011.9
20260509165050 25 303 1.6 9.7 0.00 0.00 0.00 54 1011.9
20260509164550 25 319 3.2 11.3 0.00 0.00 0.00 52 1012.0
20260509164050 25 347 3.2 6.4 0.00 0.00 0.00 51 1012.0
20260509163549 25 328 3.2 9.7 0.00 0.00 0.00 50 1012.0
20260509163049 25 11 6.4 12.9 0.00 0.00 0.00 51 1012.0
20260509162550 25 345 3.2 6.4 0.00 0.00 0.00 55 1012.0
20260509162050 25 316 1.6 9.7 0.00 0.00 0.00 58 1012.0
20260509161550 24 350 3.2 6.4 0.00 0.00 0.00 59 1012.0
20260509161049 23 326 3.2 9.7 0.00 0.00 0.00 61 1012.0
20260509160549 23 333 3.2 12.9 0.00 0.00 0.00 62 1012.0
20260509160051 23 358 8.0 12.9 0.00 0.00 0.00 60 1012.0
20260509155550 23 329 3.2 9.7 0.00 0.00 0.00 61 1012.0
20260509155049 23 343 6.4 9.7 0.00 0.00 0.00 61 1012.0
20260509154550 23 0 6.4 9.7 0.00 0.00 0.00 61 1012.0
20260509154049 22 20 4.8 9.7 0.00 0.00 0.00 63 1011.9
20260509153549 22 355 3.2 6.4 0.00 0.00 0.00 65 1012.0
20260509153049 22 1 4.8 11.3 0.00 0.00 0.00 66 1012.0
20260509152549 22 302 1.6 9.7 0.00 0.00 0.00 68 1011.9
20260509152050 22 8 6.4 12.9 0.00 0.00 0.00 69 1011.9
20260509151549 22 337 3.2 8.0 0.00 0.00 0.00 69 1011.9
20260509151049 21 24 3.2 6.4 0.00 0.00 0.00 68 1011.9
20260509150549 21 325 3.2 9.7 0.00 0.00 0.00 71 1011.9
20260509150049 21 356 4.8 9.7 0.00 0.00 0.00 72 1012.0
20260509145549 21 354 6.4 9.7 0.00 0.00 0.00 72 1012.0
20260509145051 21 10 4.8 8.0 0.00 0.00 0.00 71 1012.0
20260509144549 20 25 3.2 8.0 0.00 0.00 0.00 73 1012.0
20260509144049 20 15 3.2 9.7 0.00 0.00 0.00 75 1012.0
20260509143549 20 15 3.2 9.7 0.00 0.00 0.00 76 1012.0
20260509143053 19 10 3.2 12.9 0.00 0.00 0.00 77 1012.0
20260509142549 19 335 4.8 9.7 0.00 0.00 0.00 77 1012.1
20260509142049 19 346 4.8 9.7 0.00 0.00 0.00 77 1012.0
20260509141551 18 356 3.2 9.7 0.00 0.00 0.00 78 1011.9
20260509141049 18 314 3.2 8.0 0.00 0.00 0.00 79 1011.9
20260509140551 18 352 6.4 8.0 0.00 0.00 0.00 80 1011.9
20260509140050 18 359 6.4 8.0 0.00 0.00 0.00 80 1011.8
20260509135550 17 5 4.8 9.7 0.00 0.00 0.00 80 1011.8
20260509135049 17 7 4.8 9.7 0.00 0.00 0.00 81 1011.8
20260509134550 17 355 3.2 8.0 0.00 0.00 0.00 82 1011.7
20260509134049 17 341 4.8 9.7 0.00 0.00 0.00 82 1011.7
20260509133550 16 352 4.8 9.7 0.00 0.00 0.00 83 1011.7
20260509133049 16 17 3.2 8.0 0.00 0.00 0.00 85 1011.7
20260509132550 16 355 4.8 9.7 0.00 0.00 0.00 85 1011.7
20260509132049 16 359 4.8 9.7 0.00 0.00 0.00 84 1011.6
20260509131550 16 357 3.2 6.4 0.00 0.00 0.00 85 1011.6
20260509131049 15 358 1.6 6.4 0.00 0.00 0.00 85 1011.5
20260509130550 15 20 3.2 6.4 0.00 0.00 0.00 87 1011.5
20260509130049 15 1 3.2 8.0 0.00 0.00 0.00 87 1011.6
20260509125550 14 355 3.2 8.0 0.00 0.00 0.00 89 1011.6
20260509125049 14 354 3.2 6.4 0.00 0.00 0.00 89 1011.5
20260509124550 13 1 3.2 8.0 0.00 0.00 0.00 90 1011.3
20260509124050 13 343 4.8 8.0 0.00 0.00 0.00 91 1011.3
20260509123549 13 353 4.8 8.0 0.00 0.00 0.00 92 1011.3
20260509123050 13 322 3.2 8.0 0.00 0.00 0.00 93 1011.2
20260509122549 12 317 3.2 6.4 0.00 0.00 0.00 94 1011.2
20260509122049 12 323 3.2 6.4 0.00 0.00 0.00 95 1011.1
20260509121549 12 323 4.8 6.4 0.00 0.00 0.00 96 1011.1
20260509121049 12 341 3.2 6.4 0.00 0.00 0.00 96 1011.0
20260509120549 12 350 6.4 6.4 0.00 0.00 0.00 96 1011.1
20260509120049 12 335 4.8 6.4 0.00 0.00 0.00 96 1011.1
20260509115549 12 348 1.6 4.8 0.00 0.00 0.00 97 1011.0
20260509115049 11 16 0.0 3.2 0.00 0.00 0.00 97 1011.0
20260509114550 11 317 1.6 4.8 0.00 0.00 0.00 97 1010.9
20260509114050 11 356 1.6 3.2 0.00 0.00 0.00 98 1010.8
20260509113550 11 336 3.2 4.8 0.00 0.00 0.00 98 1010.7
20260509113051 11 333 1.6 3.2 0.00 0.00 0.00 98 1010.7
20260509112549 11 356 3.2 6.4 0.00 0.00 0.00 97 1010.6
20260509112049 11 342 3.2 6.4 0.00 0.00 0.00 97 1010.4
20260509111549 11 351 3.2 6.4 0.00 0.00 0.00 97 1010.4
20260509111051 11 329 3.2 4.8 0.00 0.00 0.00 97 1010.3
20260509110549 11 337 3.2 6.4 0.00 0.00 0.00 97 1010.2
20260509110050 11 4 3.2 6.4 0.00 0.00 0.00 97 1010.2
20260509105549 11 352 3.2 4.8 0.00 0.00 0.00 97 1010.2
20260509105050 11 326 1.6 4.8 0.00 0.00 0.00 96 1010.2
20260509104549 12 0 1.6 4.8 0.00 0.00 0.00 96 1010.2
20260509104049 12 329 1.6 4.8 0.00 0.00 0.00 96 1010.1
20260509103549 12 335 3.2 4.8 0.00 0.00 0.00 96 1010.1
20260509103049 12 357 0.0 6.4 0.00 0.00 0.00 96 1010.1
20260509102549 12 334 1.6 4.8 0.00 0.00 0.00 96 1010.1
20260509102049 12 340 1.6 4.8 0.00 0.00 0.00 96 1010.2
20260509101549 12 352 3.2 6.4 0.00 0.00 0.00 96 1010.2
20260509101049 12 3 3.2 6.4 0.00 0.00 0.00 95 1010.2
20260509100549 12 346 3.2 4.8 0.00 0.00 0.00 95 1010.3
20260509100049 12 329 3.2 6.4 0.00 0.00 0.00 94 1010.2
20260509095550 12 329 3.2 6.4 0.00 0.00 0.00 95 1010.3
20260509095050 12 337 3.2 4.8 0.00 0.00 0.00 95 1010.4
20260509094549 12 337 3.2 4.8 0.00 0.00 0.00 95 1010.4
20260509094049 12 354 3.2 4.8 0.00 0.00 0.00 94 1010.5
20260509093549 12 5 3.2 6.4 0.00 0.00 0.00 94 1010.6
20260509093050 12 342 3.2 4.8 0.00 0.00 0.00 93 1010.6
20260509092551 12 3 3.2 4.8 0.00 0.00 0.00 93 1010.5
20260509092049 12 353 3.2 4.8 0.00 0.00 0.00 93 1010.5
20260509091549 12 347 3.2 4.8 0.00 0.00 0.00 92 1010.4
20260509091049 12 342 3.2 4.8 0.00 0.00 0.00 92 1010.6
20260509090549 12 353 3.2 6.4 0.00 0.00 0.00 91 1010.5
20260509090049 12 344 3.2 6.4 0.00 0.00 0.00 91 1010.5
20260509085549 12 346 3.2 6.4 0.00 0.00 0.00 91 1010.6
20260509085050 12 356 3.2 6.4 0.00 0.00 0.00 90 1010.6
20260509084549 13 338 3.2 4.8 0.00 0.00 0.00 89 1010.7
20260509084050 13 346 3.2 4.8 0.00 0.00 0.00 89 1010.8
20260509083550 13 351 3.2 6.4 0.00 0.00 0.00 88 1010.9